Location: Key Biscayne
(25.6930°N, 80.1630°W)
Time: 08:33:51
(UTC-05:00)

Vanguard 1 Rocket - Visible Passes

Search period start: 19 February 2018 00:00
Search period end: 01 March 2018 00:00
Orbit: 655 x 4222 km, 34.3° (Epoch: 18 February)

Date Brightness Start Highest point End Pass type
(mag) Time Alt. Az. Time Alt. Az. Time Alt. Az.
19 Feb 10.5 02:17:11 64° NE 02:17:11 64° NE 02:35:25 10° E visible
19 Feb 10.1 04:34:26 35° WNW 04:48:43 85° NNE 05:04:15 10° ESE visible
19 Feb 10.3 19:41:04 10° S 19:52:45 33° SE 19:58:42 28° ESE visible
19 Feb 10.1 22:04:02 10° SW 22:52:31 - ENE 22:16:02 61° SW visible
20 Feb 11.0 00:32:56 10° W 01:09:46 40° ENE 01:21:24 10° ENE visible
20 Feb 10.3 03:27:03 60° NW 03:33:21 74° NNE 03:52:07 10° E visible
20 Feb 10.0 05:44:19 14° WNW 06:05:28 67° SW 06:18:29 10° SE visible
20 Feb 10.6 18:34:05 10° SSE 18:41:16 16° ESE 18:50:52 10° E visible
20 Feb 9.9 20:53:03 10° SW 21:07:31 62° SE 21:09:26 60° ESE visible
20 Feb 10.8 23:19:29 10° WSW 00:02:25 19° ENE 00:06:35 10° ENE visible
21 Feb 10.5 02:19:42 67° NE 02:19:42 67° NE 02:39:00 10° E visible
21 Feb 10.1 04:36:58 34° WNW 04:51:45 87° SSW 05:07:32 10° ESE visible
21 Feb 10.1 19:43:13 10° SSW 19:54:58 41° SE 20:02:50 31° E visible
21 Feb 10.1 22:07:11 10° WSW 22:55:08 - ENE 22:20:11 69° WSW visible
22 Feb 11.0 00:36:30 10° W 01:12:25 42° ENE 01:24:52 10° E visible
22 Feb 10.3 03:29:41 61° NW 03:36:37 80° NNE 03:55:35 10° ESE visible
22 Feb 10.1 05:46:58 14° WNW 06:08:00 57° SW 06:21:18 10° SE visible
22 Feb 10.4 18:34:58 10° S 18:43:30 23° SE 18:56:15 10° E visible
22 Feb 9.8 20:55:56 10° SW 21:10:05 72° SE 21:13:35 64° E visible
22 Feb 10.8 23:22:59 10° W 00:05:12 20° ENE 00:09:50 10° ENE visible
23 Feb 10.4 02:22:29 70° NE 02:22:29 70° NE 02:42:33 10° E visible
23 Feb 10.1 04:39:46 34° WNW 04:54:34 77° SSW 05:10:39 10° SE visible
23 Feb 9.8 19:45:43 10° SSW 19:57:18 51° SE 20:07:00 32° E visible
23 Feb 10.1 22:10:30 10° WSW 22:58:03 - ENE 22:24:20 73° W visible
24 Feb 10.9 00:40:03 10° W 01:15:20 43° ENE 01:28:24 10° E visible
24 Feb 10.3 03:32:38 62° WNW 03:39:42 87° NNE 03:58:55 10° ESE visible
24 Feb 10.3 05:49:56 13° WNW 06:10:21 47° SW 06:23:52 10° SSE visible
24 Feb 10.1 18:36:44 10° S 18:45:45 30° SE 19:00:23 10° ENE visible
24 Feb 9.8 20:59:01 10° SW 21:12:52 82° SSE 21:17:43 63° ENE visible
24 Feb 10.8 23:26:32 10° W 00:08:17 20° ENE 00:13:12 10° ENE visible
25 Feb 10.4 02:25:35 74° NE 02:25:35 74° NE 02:46:03 10° ESE visible
25 Feb 10.2 04:42:53 34° WNW 04:57:09 67° SW 05:13:33 10° SE visible
25 Feb 9.6 19:48:29 10° SW 19:59:49 61° SE 20:11:05 31° ENE visible
25 Feb 10.1 22:13:57 10° WSW 23:01:19 - ENE 22:28:25 72° NW visible
26 Feb 10.9 00:43:34 10° WNW 01:18:37 44° ENE 01:31:56 10° E visible
26 Feb 10.2 03:35:56 63° WNW 03:42:34 85° SSW 04:02:05 10° ESE visible
26 Feb 10.5 05:53:15 13° WNW 06:12:34 38° SW 06:26:07 10° SSE visible
26 Feb 9.8 18:38:59 10° SSW 18:48:05 38° SE 19:04:17 10° ENE visible
26 Feb 9.8 21:02:17 10° WSW 21:15:52 88° NNW 21:21:42 59° ENE visible
26 Feb 10.7 23:30:07 10° W 00:11:45 20° ENE 00:16:39 10° E visible
27 Feb 10.4 02:29:04 78° ENE 02:29:04 78° ENE 02:49:25 10° ESE visible
27 Feb 10.3 04:46:23 34° W 04:59:33 57° SW 05:16:13 10° SSE visible
27 Feb 9.5 19:51:29 10° SW 20:02:33 73° SE 20:14:57 29° ENE visible
27 Feb 10.1 22:17:31 10° W 23:04:56 - ENE 22:32:16 69° NW visible
28 Feb 10.9 00:47:01 10° WNW 01:22:16 44° E 01:35:26 10° E visible
28 Feb 10.3 03:39:36 63° W 03:45:16 76° SW 04:05:03 10° SE visible
28 Feb 10.7 05:56:56 12° W 06:14:42 31° SW 06:28:00 10° S visible
28 Feb 9.5 18:41:35 10° SSW 18:50:34 48° SE 19:07:37 10° ENE visible
28 Feb 9.8 21:05:42 10° WSW 21:19:05 79° NNW 21:25:27 56° NE visible
